Starlink 11423

operational
NORAD ID: 61950 Int'l Des: 2024-209 Owner: SPXS Country: US Constellation: starlink
LEOCIRCULAR

About Starlink 11423

Description loading...

Live Position

Loading 3D Globe...

Upcoming Passes

Altitude History

Altitude vs Time

uPlot chart will show altitude changes over time

Two-Line Element Set

1 61950U 24209M 26102.53478328 .00113805 00000-0 93211-3 0 9996
2 61950 53.1572 204.4191 0000897 88.7917 271.3204 15.69690894 82030
Epoch: Apr 12, 2026 • Age: 4 hours

Current Status

Altitude 378.7 km
Velocity 7.68 km/s
Sub-Earth Point -53.18°S, 22.48°E
Launch Date Nov 14, 2024
Age 1.4 years
Type internet

Technical Details

Classification Payload
Mass 960.00 kg
Dry Mass 910.00 kg
Total Mass 960.00 kg
Length 0.30 m
Diameter 4.10 m
Span 29.00 m
Shape Box + pan
Manufacturer SPXS
Bus Type Starlink V2MD
Phase Status In Orbit
Owner/State SPXS/US

Large Constellations

Loading constellations...